Location: Bennemühlen
(52.5740°N, 9.7135°E)
Time: 10:10:33
(UTC+00:00)

SR - Pass Details

Date: 22 February 2026
Orbit: 573 x 848 km, 66.7° (Epoch: 7 March)

Event Time Altitude Azimuth Distance (km) Brightness Sun altitude
Exits shadow 02:43:17 24° 74° (ENE) 1,272 ? -33.2°
Drops below altitude 10° 02:45:33 10° 53° (NE) 2,008 ? -32.9°
Sets 02:48:03 0° 44° (NE) 2,964 ? -32.6°
